DW0884 Weather Reports


time (UTC)temp
C
wind
direction
speed
KPH
gust
KPH
rain 1hr
cm
rain 24hr
cm
rain mn
cm
humidity
%
barometer
mb
20260506091552 11 98 3.2 9.7 0.00 0.00 0.00 85 1016.3
20260506084611 11 107 1.6 11.3 0.00 0.00 0.00 84 1016.2
20260506083054 11 84 3.2 8.0 0.00 0.00 0.00 83 1016.1
20260506081552 12 119 3.2 11.3 0.00 0.00 0.00 83 1016.1
20260506073054 12 150 0.0 6.4 0.00 0.00 0.00 82 1015.7
20260506071551 12 123 1.6 11.3 0.00 0.00 0.00 82 1015.6
20260506061559 12 138 1.6 6.4 0.00 0.00 0.00 80 1015.2
20260506050112 13 131 3.2 11.3 0.00 0.00 0.00 77 1014.9
20260506044554 13 151 1.6 9.7 0.00 0.00 0.00 76 1014.9
20260506043057 14 134 4.8 16.1 0.00 0.00 0.00 76 1014.6
20260506041601 14 163 4.8 11.3 0.00 0.00 0.00 76 1014.5
20260506040053 14 132 1.6 8.0 0.00 0.00 0.00 75 1014.3
20260506034556 14 171 3.2 9.7 0.00 0.00 0.00 75 1014.2
20260506033053 14 186 3.2 16.1 0.00 0.00 0.00 75 1014.0
20260506031551 14 121 3.2 11.3 0.00 0.00 0.00 75 1013.9
20260506030056 15 175 3.2 11.3 0.00 0.00 0.00 75 1013.8
20260506024603 15 177 4.8 14.5 0.00 0.00 0.00 74 1013.9
20260506023109 15 175 3.2 12.9 0.00 0.00 0.00 74 1014.0
20260506021552 15 128 4.8 16.1 0.00 0.00 0.00 73 1014.0
20260506020056 15 140 6.4 17.7 0.00 0.00 0.00 72 1014.1
20260506014551 16 146 6.4 16.1 0.00 0.00 0.00 70 1014.2
20260506013102 16 136 4.8 17.7 0.00 0.00 0.00 69 1014.1
20260506011551 16 140 6.4 12.9 0.00 0.00 0.00 69 1014.2
20260506010057 17 104 6.4 12.9 0.00 0.00 0.00 68 1014.2
20260506004557 17 152 4.8 14.5 0.00 0.00 0.00 67 1014.2
20260506003053 17 134 6.4 14.5 0.00 0.00 0.00 68 1014.3
20260506001558 17 142 4.8 16.1 0.00 0.00 0.00 69 1014.4
20260506000058 17 161 6.4 16.1 0.00 0.00 0.00 69 1014.4
20260505234553 17 178 4.8 16.1 0.00 0.00 0.00 69 1014.7
20260505233056 17 146 4.8 14.5 0.00 0.00 0.00 69 1014.7
20260505231555 17 142 6.4 17.7 0.00 0.00 0.00 68 1014.9
20260505230119 17 151 4.8 14.5 0.00 0.00 0.00 68 1015.0
20260505224601 17 161 4.8 16.1 0.00 0.00 0.00 69 1015.3
20260505223058 17 161 3.2 22.5 0.00 0.00 0.00 68 1015.4
20260505221604 17 146 6.4 16.1 0.00 0.00 0.00 68 1015.5
20260505220059 17 169 8.0 17.7 0.00 0.00 0.00 68 1015.6
20260505214553 17 259 4.8 12.9 0.00 0.00 0.00 69 1015.6
20260505213055 17 133 3.2 17.7 0.00 0.00 0.00 71 1015.7
20260505211559 17 5 4.8 12.9 0.00 0.00 0.00 69 1015.8
20260505210104 16 186 6.4 14.5 0.00 0.00 0.00 72 1016.0
20260505204558 16 161 6.4 14.5 0.00 0.00 0.00 71 1016.1
20260505203055 17 318 4.8 14.5 0.00 0.00 0.00 70 1016.1
20260505201552 17 279 3.2 14.5 0.00 0.00 0.00 74 1016.1
20260505200107 16 185 6.4 16.1 0.00 0.00 0.00 71 1016.2
20260505194554 16 352 4.8 14.5 0.00 0.00 0.00 74 1016.2
20260505193103 16 209 3.2 12.9 0.00 0.00 0.00 72 1016.1
20260505191557 16 179 4.8 12.9 0.00 0.00 0.00 74 1016.0
20260505190050 16 167 6.4 19.3 0.00 0.00 0.00 74 1016.1
20260505184551 16 292 6.4 17.7 0.00 0.00 0.00 75 1016.1
20260505183056 16 152 8.0 16.1 0.00 0.00 0.00 74 1016.0
20260505181558 15 194 4.8 16.1 0.00 0.00 0.00 78 1016.0
20260505180054 14 223 4.8 14.5 0.00 0.00 0.00 80 1016.0
20260505174550 13 160 3.2 12.9 0.00 0.00 0.00 81 1015.9
20260505173054 13 313 1.6 14.5 0.00 0.00 0.00 81 1015.8
20260505171554 13 141 4.8 12.9 0.00 0.00 0.00 83 1015.9
20260505170051 12 245 1.6 14.5 0.00 0.00 0.00 84 1015.7
20260505164551 12 169 4.8 12.9 0.00 0.00 0.00 84 1015.7
20260505163054 12 178 6.4 12.9 0.00 0.00 0.00 84 1015.7
20260505161558 12 197 3.2 12.9 0.00 0.00 0.00 84 1015.6
20260505153054 12 148 3.2 14.5 0.00 0.00 0.00 84 1015.4
20260505151552 12 159 1.6 9.7 0.00 0.00 0.00 84 1015.4
20260505150104 12 127 3.2 12.9 0.00 0.00 0.00 84 1015.2
20260505130110 11 121 3.2 9.7 0.00 0.00 0.00 83 1013.5
20260505124555 12 163 3.2 9.7 0.00 0.00 0.00 82 1013.3
20260505123056 12 132 4.8 12.9 0.00 0.00 0.00 82 1013.2
20260505121558 12 144 4.8 11.3 0.00 0.00 0.00 81 1012.9
20260505114551 12 157 1.6 9.7 0.00 0.00 0.00 80 1012.5
20260505113103 12 94 3.2 9.7 0.00 0.00 0.00 80 1012.4
20260505111557 12 109 1.6 9.7 0.00 0.00 0.00 80 1012.2
20260505101558 12 95 6.4 12.9 0.00 0.00 0.00 78 1011.8
20260505100052 12 105 3.2 9.7 0.00 0.00 0.00 78 1011.7
20260505094609 12 103 3.2 9.7 0.00 0.00 0.00 78 1011.6
20260505093054 12 111 3.2 9.7 0.00 0.00 0.00 77 1011.6